• Em Portugal
  • Lista de países
  • Para 7 dias
  • Temperatura da água
  • Mapas de satélite
  • Mapa do tempo
  • Widgets de tempo
  • user-avatar
    Iniciar Sessão

    Previsão horária em Sherpur

    Hoje, 25 Setembro, Segunda-feira

    Tempo Temperatura Precipitação Vento Pressão Humidade
    00:00 +17°C° 0 mm 2 m/s 610 mmHg 27%
    01:00 +17°C° 0 mm 2 m/s 610 mmHg 28%
    02:00 +16°C° 0 mm 2 m/s 610 mmHg 29%
    03:00 +16°C° 0 mm 2 m/s 610 mmHg 30%
    04:00 +15°C° 0 mm 2 m/s 610 mmHg 30%
    05:00 +16°C° 0 mm 3 m/s 610 mmHg 30%
    06:00 +17°C° 0 mm 3 m/s 610 mmHg 27%
    07:00 +18°C° 0 mm 3 m/s 611 mmHg 25%
    08:00 +18°C° 0 mm 2 m/s 611 mmHg 23%
    09:00 +20°C° 0 mm 3 m/s 612 mmHg 20%
    10:00 +21°C° 0 mm 3 m/s 612 mmHg 17%
    11:00 +24°C° 0 mm 3 m/s 612 mmHg 13%
    12:00 +25°C° 0 mm 3 m/s 612 mmHg 12%
    13:00 +25°C° 0 mm 3 m/s 612 mmHg 11%
    14:00 +26°C° 0 mm 3 m/s 612 mmHg 10%
    15:00 +26°C° 0 mm 3 m/s 612 mmHg 10%
    16:00 +26°C° 0 mm 4 m/s 612 mmHg 10%
    17:00 +25°C° 0 mm 4 m/s 612 mmHg 10%
    18:00 +24°C° 0 mm 3 m/s 611 mmHg 12%
    19:00 +21°C° 0 mm 3 m/s 611 mmHg 14%
    20:00 +19°C° 0 mm 3 m/s 611 mmHg 16%
    21:00 +18°C° 0 mm 3 m/s 611 mmHg 17%
    22:00 +18°C° 0 mm 2 m/s 611 mmHg 19%
    23:00 +17°C° 0 mm 2 m/s 611 mmHg 20%

    Amanhã, 26 Setembro, Terça-feira

    Tempo Temperatura Precipitação Vento Pressão Humidade
    00:00 +16°C° 0 mm 2 m/s 610 mmHg 20%
    01:00 +16°C° 0 mm 2 m/s 610 mmHg 21%
    02:00 +15°C° 0 mm 2 m/s 609 mmHg 22%
    03:00 +15°C° 0 mm 2 m/s 609 mmHg 22%
    04:00 +14°C° 0 mm 2 m/s 609 mmHg 22%
    05:00 +14°C° 0 mm 2 m/s 609 mmHg 23%
    06:00 +15°C° 0 mm 2 m/s 610 mmHg 21%
    07:00 +16°C° 0 mm 2 m/s 610 mmHg 19%
    08:00 +18°C° 0 mm 2 m/s 611 mmHg 18%
    09:00 +19°C° 0 mm 2 m/s 612 mmHg 15%
    10:00 +21°C° 0 mm 2 m/s 612 mmHg 13%
    11:00 +23°C° 0 mm 1 m/s 612 mmHg 10%
    12:00 +24°C° 0 mm 2 m/s 612 mmHg 9%
    13:00 +25°C° 0 mm 2 m/s 612 mmHg 9%
    14:00 +26°C° 0 mm 2 m/s 612 mmHg 8%
    15:00 +26°C° 0 mm 2 m/s 612 mmHg 8%
    16:00 +26°C° 0 mm 2 m/s 612 mmHg 8%
    17:00 +26°C° 0 mm 2 m/s 612 mmHg 8%
    18:00 +24°C° 0 mm 2 m/s 612 mmHg 10%
    19:00 +21°C° 0 mm 2 m/s 611 mmHg 12%
    20:00 +19°C° 0 mm 2 m/s 611 mmHg 14%
    21:00 +19°C° 0 mm 2 m/s 611 mmHg 16%
    22:00 +19°C° 0 mm 1 m/s 611 mmHg 17%
    23:00 +18°C° 0 mm 1 m/s 610 mmHg 18%

    Depois de amanhã, 27 Setembro, Quarta-feira

    Tempo Temperatura Precipitação Vento Pressão Humidade
    00:00 +17°C° 0 mm 2 m/s 610 mmHg 18%
    01:00 +16°C° 0 mm 2 m/s 610 mmHg 18%
    02:00 +16°C° 0 mm 2 m/s 610 mmHg 19%
    03:00 +16°C° 0 mm 2 m/s 609 mmHg 19%
    04:00 +15°C° 0 mm 2 m/s 609 mmHg 19%
    05:00 +15°C° 0 mm 2 m/s 609 mmHg 19%
    06:00 +16°C° 0 mm 2 m/s 610 mmHg 18%
    07:00 +18°C° 0 mm 2 m/s 611 mmHg 17%
    08:00 +19°C° 0 mm 2 m/s 612 mmHg 15%
    09:00 +21°C° 0 mm 2 m/s 613 mmHg 14%
    10:00 +23°C° 0 mm 2 m/s 613 mmHg 12%
    11:00 +25°C° 0 mm 2 m/s 614 mmHg 11%
    12:00 +25°C° 0 mm 2 m/s 613 mmHg 11%
    13:00 +26°C° 0 mm 2 m/s 613 mmHg 10%
    14:00 +27°C° 0 mm 3 m/s 613 mmHg 10%
    15:00 +27°C° 0 mm 3 m/s 613 mmHg 10%
    16:00 +27°C° 0 mm 3 m/s 613 mmHg 10%
    17:00 +26°C° 0 mm 3 m/s 613 mmHg 10%
    18:00 +25°C° 0 mm 3 m/s 612 mmHg 12%
    19:00 +22°C° 0 mm 3 m/s 612 mmHg 14%
    20:00 +20°C° 0 mm 2 m/s 612 mmHg 16%
    21:00 +19°C° 0 mm 2 m/s 611 mmHg 17%
    22:00 +18°C° 0 mm 2 m/s 611 mmHg 18%
    23:00 +18°C° 0 mm 2 m/s 611 mmHg 19%

    28 Setembro, Quinta-feira

    Tempo Temperatura Precipitação Vento Pressão Humidade
    00:00 +17°C° 0 mm 2 m/s 611 mmHg 19%
    01:00 +17°C° 0 mm 2 m/s 610 mmHg 20%
    02:00 +16°C° 0 mm 2 m/s 610 mmHg 20%
    03:00 +16°C° 0 mm 2 m/s 610 mmHg 20%
    04:00 +16°C° 0 mm 2 m/s 609 mmHg 20%
    05:00 +15°C° 0 mm 2 m/s 609 mmHg 20%
    06:00 +17°C° 0 mm 2 m/s 610 mmHg 19%
    07:00 +18°C° 0 mm 2 m/s 611 mmHg 18%
    08:00 +19°C° 0 mm 2 m/s 611 mmHg 16%
    09:00 +21°C° 0 mm 2 m/s 612 mmHg 14%
    10:00 +24°C° 0 mm 2 m/s 612 mmHg 12%
    11:00 +25°C° 0 mm 1 m/s 613 mmHg 10%
    12:00 +26°C° 0 mm 2 m/s 612 mmHg 9%
    13:00 +27°C° 0 mm 2 m/s 612 mmHg 9%
    14:00 +28°C° 0 mm 2 m/s 612 mmHg 8%
    15:00 +28°C° 0 mm 2 m/s 612 mmHg 8%
    16:00 +28°C° 0 mm 3 m/s 612 mmHg 8%
    17:00 +28°C° 0 mm 3 m/s 612 mmHg 8%
    18:00 +26°C° 0 mm 2 m/s 611 mmHg 10%
    19:00 +24°C° 0 mm 2 m/s 611 mmHg 12%
    20:00 +21°C° 0 mm 2 m/s 611 mmHg 13%
    21:00 +20°C° 0 mm 2 m/s 611 mmHg 14%
    22:00 +19°C° 0 mm 2 m/s 611 mmHg 15%
    23:00 +19°C° 0 mm 2 m/s 611 mmHg 15%

    29 Setembro, Sexta-feira

    Tempo Temperatura Precipitação Vento Pressão Humidade
    00:00 +18°C° 0 mm 2 m/s 610 mmHg 16%
    01:00 +17°C° 0 mm 2 m/s 610 mmHg 16%
    02:00 +17°C° 0 mm 2 m/s 610 mmHg 17%
    03:00 +17°C° 0 mm 2 m/s 610 mmHg 17%
    04:00 +16°C° 0 mm 2 m/s 609 mmHg 18%
    05:00 +16°C° 0 mm 2 m/s 609 mmHg 19%
    06:00 +17°C° 0 mm 3 m/s 610 mmHg 18%
    07:00 +18°C° 0 mm 3 m/s 611 mmHg 17%
    08:00 +19°C° 0 mm 3 m/s 612 mmHg 16%
    09:00 +21°C° 0 mm 3 m/s 612 mmHg 14%
    10:00 +23°C° 0 mm 2 m/s 613 mmHg 13%
    11:00 +25°C° 0 mm 2 m/s 613 mmHg 11%
    12:00 +25°C° 0 mm 3 m/s 613 mmHg 10%
    13:00 +26°C° 0 mm 3 m/s 613 mmHg 10%
    14:00 +27°C° 0 mm 3 m/s 613 mmHg 9%
    15:00 +27°C° 0 mm 4 m/s 612 mmHg 9%
    16:00 +26°C° 0 mm 4 m/s 612 mmHg 10%
    17:00 +26°C° 0 mm 4 m/s 612 mmHg 10%
    18:00 +23°C° 0 mm 4 m/s 612 mmHg 12%
    19:00 +21°C° 0 mm 3 m/s 612 mmHg 13%
    20:00 +20°C° 0 mm 3 m/s 612 mmHg 15%
    21:00 +19°C° 0 mm 2 m/s 612 mmHg 16%
    22:00 +18°C° 0 mm 2 m/s 612 mmHg 17%
    23:00 +17°C° 0 mm 2 m/s 611 mmHg 17%

    30 Setembro, Sábado

    Tempo Temperatura Precipitação Vento Pressão Humidade
    00:00 +17°C° 0 mm 2 m/s 611 mmHg 18%
    01:00 +16°C° 0 mm 2 m/s 611 mmHg 18%
    02:00 +16°C° 0 mm 2 m/s 610 mmHg 19%
    03:00 +15°C° 0 mm 2 m/s 610 mmHg 19%
    04:00 +15°C° 0 mm 2 m/s 610 mmHg 19%
    05:00 +15°C° 0 mm 2 m/s 610 mmHg 20%
    06:00 +16°C° 0 mm 2 m/s 611 mmHg 19%
    07:00 +17°C° 0 mm 2 m/s 612 mmHg 17%
    08:00 +18°C° 0 mm 2 m/s 613 mmHg 16%
    09:00 +20°C° 0 mm 2 m/s 613 mmHg 14%
    10:00 +23°C° 0 mm 2 m/s 614 mmHg 12%
    11:00 +25°C° 0 mm 1 m/s 614 mmHg 10%
    12:00 +26°C° 0 mm 2 m/s 614 mmHg 9%
    13:00 +27°C° 0 mm 2 m/s 614 mmHg 8%
    14:00 +27°C° 0 mm 2 m/s 614 mmHg 7%
    15:00 +27°C° 0 mm 2 m/s 614 mmHg 7%
    16:00 +27°C° 0 mm 3 m/s 613 mmHg 7%
    17:00 +27°C° 0 mm 3 m/s 613 mmHg 7%
    18:00 +25°C° 0 mm 3 m/s 613 mmHg 9%
    19:00 +23°C° 0 mm 2 m/s 613 mmHg 11%
    20:00 +20°C° 0 mm 2 m/s 612 mmHg 13%
    21:00 +19°C° 0 mm 2 m/s 612 mmHg 13%
    22:00 +19°C° 0 mm 2 m/s 612 mmHg 14%
    23:00 +18°C° 0 mm 2 m/s 611 mmHg 14%
    Mostrar mais